Theta_e
294 294 293 293 293 291 290 289 289 289 289 288 288 288 288 288 288 287 287 287 287 287 287 287 287 287 287 286 286 284 284 284
294 293 293 293 292 290 289 288 288 288 288 288 287 287 288 288 287 286 286 286 286 286 286 286 285 285 284 284 284 283 282 282
294 293 292 292 291 290 289 289 289 288 288 288 287 287 286 286 286 286 285 285 285 285 285 285 284 284 282 282 282 281 281 281
293 292 292 291 291 290 290 290 289 288 287 286 285 285 285 285 285 285 284 284 284 284 283 283 283 282 282 282 281 281 280 280
293 293 293 292 292 291 290 289 288 287 286 284 284 284 284 285 284 284 284 283 282 282 282 282 282 282 282 281 280 280 280 280
294 294 294 293 293 292 291 289 288 286 285 284 284 284 284 283 282 282 282 282 282 281 281 282 282 282 281 280 279 278 277 277
296 297 295 295 293 292 290 288 287 285 284 285 283 282 282 282 282 281 281 280 280 280 279 279 282 284 284 281 279 278 277 276
296 296 295 294 294 292 290 288 286 284 283 283 282 281 281 281 281 280 280 280 279 279 280 279 279 283 283 282 279 277 276 276
295 294 293 292 292 291 289 286 284 283 283 282 281 281 280 280 280 279 280 279 279 279 279 279 280 283 282 280 277 276 275 276
296 295 292 292 290 288 284 284 283 283 282 281 281 280 280 279 279 278 279 279 279 280 279 279 279 282 281 278 276 276 275 275
294 293 292 289 287 286 284 283 283 282 282 281 280 280 279 278 278 278 278 280 280 280 278 278 278 281 281 278 276 275 274 274
287 290 287 284 284 284 282 283 281 280 280 279 279 278 278 278 277 277 277 278 275 276 276 276 277 280 281 280 276 275 274 274
287 283 280 282 283 282 282 280 279 278 277 276 276 279 279 277 276 277 276 275 274 274 276 277 276 279 282 280 278 277 274 273
281 280 279 279 281 281 278 277 275 275 274 273 275 277 278 277 276 276 276 275 275 275 275 274 276 277 280 279 279 278 274 273
276 276 279 277 276 274 277 275 275 273 272 273 274 274 275 277 277 277 276 276 276 275 274 272 274 275 275 275 276 276 273 273
276 275 274 273 272 273 274 274 273 272 272 273 274 275 276 277 277 277 278 278 276 276 275 272 272 274 275 274 270 269 268 262
273 273 273 272 274 275 274 273 272 272 272 274 274 274 276 277 277 282 281 282 282 281 278 275 277 279 278 277 275 274 274 255
274 273 271 273 272 270 271 271 271 273 273 274 275 275 276 276 276 276 280 282 283 282 281 279 278 280 280 278 276 275 274 252
271 270 270 270 272 272 269 270 271 271 273 275 275 275 275 275 276 276 276 275 277 282 281 280 280 280 280 279 277 271 271 253
267 268 268 269 272 268 269 269 269 271 271 273 273 274 274 275 276 276 275 274 275 275 280 279 280 280 280 278 267 265 262 254
Wind_Speed
7 7 7 7 6 7 7 7 7 7 6 6 6 6 5 5 6 6 4 3 4 4 4 4 5 5 6 5 5 5 4 4
7 7 7 7 7 7 7 8 7 6 6 6 5 5 6 5 5 5 4 4 4 4 5 5 5 5 5 5 5 5 5 5
7 7 7 7 7 7 7 7 7 6 6 6 6 5 5 5 5 5 5 4 4 4 5 5 4 5 5 5 5 5 4 4
7 7 7 7 7 7 7 7 7 7 6 6 6 6 6 5 5 5 5 5 4 5 5 5 5 5 5 5 5 5 5 5
7 8 8 8 8 8 8 8 8 7 7 7 7 6 6 5 5 4 5 5 4 4 5 5 5 5 5 5 6 5 5 6
8 7 8 8 9 8 8 10 8 7 7 7 5 6 7 6 5 5 4 5 5 5 5 5 5 3 5 5 6 6 5 6
8 9 9 9 8 7 8 8 8 7 7 7 8 7 7 7 7 6 6 5 5 4 4 4 3 6 8 6 5 6 6 6
10 9 8 8 9 9 8 8 8 8 8 7 7 7 7 6 6 6 6 5 5 5 5 5 5 6 7 8 4 5 5 6
8 7 7 6 8 8 8 7 7 7 7 7 8 7 7 7 7 6 5 6 5 5 5 6 5 8 7 6 5 5 6 6
7 7 8 9 8 8 7 8 8 8 8 7 8 8 8 8 7 4 5 5 5 5 5 6 5 9 9 6 5 6 5 5
9 7 8 8 8 9 8 8 10 8 8 8 7 8 8 7 7 4 4 6 5 5 5 6 6 12 12 8 5 6 4 5
5 9 6 7 8 9 8 12 6 6 6 7 7 8 7 7 4 6 5 6 5 5 4 5 5 7 13 11 6 5 5 4
5 4 5 7 9 8 11 6 7 7 6 6 6 6 6 8 6 6 7 7 6 6 5 3 4 7 12 13 10 10 6 5
6 7 6 7 7 9 5 7 7 6 6 6 6 6 7 9 8 7 7 8 8 7 6 5 5 5 13 11 11 11 6 5
4 5 8 6 4 3 7 7 7 6 6 6 7 6 6 6 7 8 9 8 8 8 8 7 7 6 5 5 6 9 7 9
5 3 4 4 4 6 7 7 6 6 6 6 6 8 8 8 9 9 10 12 10 9 9 10 9 9 13 11 6 5 8 6
3 4 5 5 6 7 7 7 7 6 6 7 7 8 8 8 7 17 15 20 18 17 13 8 13 20 21 19 18 18 18 4
5 5 5 5 4 4 6 7 7 7 8 7 8 8 9 8 8 9 12 18 19 18 19 18 16 21 23 22 20 19 16 3
3 4 5 4 6 6 6 7 8 7 8 8 8 7 7 8 8 7 9 9 8 16 14 18 19 21 23 22 17 8 11 4
3 5 5 5 8 6 6 7 7 7 5 6 5 6 7 7 7 8 7 7 7 5 13 15 19 20 22 23 5 7 4 3
Wind_Direction
161 163 155 154 158 143 129 126 116 107 105 99 102 106 111 100 98 104 107 104 106 98 93 82 62 63 71 56 58 64 64 54
171 156 152 150 152 142 131 129 129 123 117 119 125 125 122 126 126 126 117 107 89 81 76 75 74 76 86 91 91 92 88 81
167 157 161 163 155 153 147 141 147 139 143 150 143 138 134 134 131 129 120 100 106 96 89 86 80 75 86 94 102 96 83 88
166 174 175 168 163 159 155 153 149 151 156 155 161 163 157 142 128 122 123 119 111 112 110 98 96 95 93 93 86 82 77 72
175 182 175 172 165 168 169 159 167 167 172 173 176 174 150 140 134 127 130 136 136 124 117 121 122 127 126 121 114 101 74 54
182 180 177 172 168 170 171 171 170 167 173 180 164 153 146 140 142 143 146 147 147 139 138 138 138 146 135 130 120 112 96 78
184 184 179 175 171 163 167 166 157 173 179 167 171 168 155 153 161 163 165 157 155 155 155 157 108 150 155 145 139 133 122 112
189 185 185 170 165 179 180 160 168 176 181 175 164 162 165 160 159 172 177 166 167 165 148 127 118 162 167 150 140 139 130 129
182 181 172 169 172 166 165 163 167 181 181 171 168 165 163 166 174 176 171 175 162 165 164 139 148 159 160 124 88 83 94 100
172 163 164 182 186 148 142 159 179 193 186 173 168 163 164 176 173 166 156 166 163 167 166 144 138 156 159 127 111 114 106 103
177 167 172 201 153 149 171 177 206 188 183 167 161 163 172 162 168 162 156 163 153 154 147 146 151 167 168 154 143 141 142 114
158 182 201 138 143 178 174 209 190 153 152 155 161 165 162 160 150 155 153 147 137 134 130 136 145 175 179 181 155 159 149 149
163 171 188 167 165 183 199 173 150 144 150 161 158 156 160 158 150 155 151 152 155 146 143 143 150 180 189 191 176 176 160 169
170 179 204 193 183 188 204 141 133 139 157 161 162 167 160 159 159 162 164 170 175 173 173 172 173 186 186 171 193 183 159 149
165 216 229 200 160 151 150 144 148 162 167 166 169 165 159 164 169 176 183 183 185 182 182 177 176 171 150 162 179 182 155 174
200 234 281 169 171 166 168 158 170 166 166 170 172 176 177 188 187 190 199 193 185 187 180 175 186 187 170 161 160 150 140 110
242 223 237 186 195 205 191 175 164 175 175 181 178 182 185 190 197 211 207 205 202 193 184 189 192 184 181 179 179 176 163 67
241 241 239 240 245 220 182 171 186 197 181 185 187 185 183 190 188 194 209 211 208 202 202 191 185 190 187 181 180 182 175 136
254 255 244 232 235 223 182 184 199 201 192 191 190 182 181 187 189 187 187 186 195 210 196 195 195 191 190 190 179 192 185 147
286 271 258 255 261 218 190 191 196 193 194 181 171 175 180 180 184 184 181 184 181 158 183 189 192 191 190 190 160 184 173 167